NR6J Weather Reports


time (UTC)temp
F
wind
direction
speed
knots
gust
knots
rain 1hr
in
rain 24hr
in
rain mn
in
humidity
%
barometer
mb
20260504220654 58 73 3.5 6.1 0.00 0.11 0.00 74 1012.5
20260504215805 58 105 3.5 6.1 0.00 0.11 0.00 75 1012.6
20260504214649 58 89 3.5 7.0 0.00 0.11 0.00 73 1012.6
20260504213645 57 96 3.5 5.2 0.00 0.11 0.00 75 1012.8
20260504212645 59 97 3.5 6.1 0.00 0.11 0.00 71 1012.9
20260504211646 59 89 3.5 7.8 0.00 0.11 0.00 73 1013.0
20260504210646 60 72 4.3 7.8 0.00 0.11 0.00 70 1013.1
20260504205646 60 97 3.5 7.0 0.00 0.11 0.00 69 1013.1
20260504204646 60 94 3.5 7.8 0.00 0.11 0.00 70 1013.5
20260504203645 60 111 4.3 8.7 0.00 0.11 0.00 69 1013.3
20260504202640 60 98 4.3 7.8 0.00 0.11 0.00 69 1013.5
20260504201641 60 65 4.3 7.0 0.00 0.11 0.00 69 1013.6
20260504200639 59 105 4.3 7.8 0.00 0.11 0.00 69 1013.6
20260504195640 59 97 3.5 8.7 0.00 0.11 0.00 72 1013.8
20260504194638 58 69 3.5 7.0 0.00 0.11 0.00 72 1013.8
20260504193638 58 99 4.3 7.0 0.00 0.11 0.00 74 1013.9
20260504192635 58 99 4.3 7.0 0.00 0.11 0.00 74 1014.1
20260504191635 58 85 4.3 6.1 0.00 0.11 0.00 72 1014.0
20260504190636 56 96 4.3 6.1 0.00 0.11 0.00 73 1014.1
20260504185636 56 105 4.3 7.0 0.00 0.11 0.00 75 1014.2
20260504184639 54 95 3.5 5.2 0.00 0.11 0.00 81 1014.4
20260504183633 54 101 3.5 5.2 0.00 0.11 0.00 79 1014.4
20260504182750 54 122 3.5 5.2 0.00 0.11 0.00 81 1014.4
20260504181635 53 157 2.6 5.2 0.00 0.11 0.00 84 1014.2
20260504180633 53 159 3.5 4.3 0.00 0.11 0.00 84 1014.2
20260504175635 52 105 2.6 4.3 0.00 0.11 0.00 85 1014.1
20260504174634 51 101 2.6 6.1 0.00 0.11 0.00 88 1014.1
20260504173636 50 110 2.6 5.2 0.00 0.11 0.00 89 1014.1
20260504172740 50 110 2.6 3.5 0.00 0.11 0.00 90 1014.1
20260504171631 50 111 2.6 4.3 0.00 0.11 0.00 91 1014.1
20260504170632 49 108 3.5 4.3 0.00 0.11 0.00 92 1014.1
20260504150626 48 86 2.6 3.5 0.00 0.11 0.00 96 1014.1
20260504140626 47 107 2.6 3.5 0.00 0.11 0.00 97 1013.7
20260504130618 48 88 2.6 3.5 0.00 0.11 0.00 97 1013.3
20260504110612 48 85 2.6 4.3 0.00 0.11 0.00 95 1013.3
20260504081600 48 99 2.6 3.5 0.00 0.11 0.00 95 1013.5
20260504080601 48 164 2.6 3.5 0.00 0.11 0.00 94 1013.3
20260504050558 49 84 3.5 4.3 0.00 0.10 0.10 91 1014.1
20260504045544 49 83 3.5 4.3 0.00 0.10 0.10 89 1014.2
20260504044650 50 80 2.6 3.5 0.00 0.10 0.10 88 1014.5
20260504043656 51 177 2.6 3.5 0.00 0.10 0.10 85 1014.6
20260504042539 51 9 1.7 4.3 0.00 0.10 0.10 83 1014.8
20260504041539 51 100 2.6 4.3 0.00 0.10 0.10 81 1014.9
20260504040543 51 103 2.6 5.2 0.00 0.10 0.10 81 1014.7
20260504035539 51 99 2.6 3.5 0.00 0.10 0.10 83 1014.6
20260504034540 51 92 3.5 4.3 0.00 0.10 0.10 83 1014.2
20260504033540 50 94 3.5 4.3 0.00 0.10 0.10 83 1013.9
20260504032538 50 89 3.5 4.3 0.00 0.10 0.10 84 1013.8
20260504031538 50 90 3.5 4.3 0.00 0.10 0.10 84 1013.7
20260504030539 51 77 2.6 5.2 0.00 0.10 0.10 84 1013.5
20260504025653 51 107 2.6 5.2 0.00 0.10 0.10 85 1013.2
20260504024536 51 113 3.5 5.2 0.00 0.10 0.10 85 1013.2
20260504023536 52 94 3.5 6.1 0.00 0.10 0.10 86 1012.8
20260504022648 53 101 3.5 5.2 0.00 0.10 0.10 86 1012.6
20260504021538 54 97 3.5 7.0 0.00 0.10 0.10 86 1012.2
20260504020654 55 105 4.3 5.2 0.00 0.10 0.10 85 1012.1
20260504015536 56 104 3.5 6.1 0.00 0.10 0.10 85 1011.9
20260504014529 57 101 3.5 5.2 0.00 0.10 0.10 86 1011.8
20260504013542 57 90 4.3 5.2 0.00 0.10 0.10 92 1011.7
20260504012647 57 90 3.5 4.3 0.00 0.10 0.10 91 1011.4
20260504011529 58 94 3.5 4.3 0.00 0.10 0.10 87 1011.6
20260504010524 58 95 3.5 7.0 0.00 0.10 0.10 88 1011.7
20260504005639 57 98 3.5 6.1 0.00 0.10 0.10 88 1011.8
20260504004531 57 105 3.5 7.0 0.09 0.10 0.10 91 1011.8
20260504003529 56 98 3.5 5.2 0.10 0.10 0.10 93 1011.8
20260504002528 55 99 3.5 5.2 0.10 0.10 0.10 92 1011.8
20260504001539 55 92 3.5 5.2 0.10 0.10 0.10 91 1011.6
20260504000518 56 95 3.5 5.2 0.10 0.10 0.10 88 1011.7
20260503235521 59 86 3.5 7.8 0.10 0.10 0.10 81 1012.1
20260503234527 68 79 4.3 7.8 0.02 0.02 0.02 48 1012.2
20260503233512 69 63 1.7 4.3 0.00 0.00 0.00 40 1011.4
20260503232530 69 0 0.9 4.3 0.00 0.00 0.00 39 1011.2
20260503231506 69 9 1.7 5.2 0.00 0.00 0.00 38 1011.3
20260503230512 69 71 2.6 4.3 0.00 0.00 0.00 38 1011.6
20260503225507 69 359 2.6 4.3 0.00 0.00 0.00 39 1011.7
20260503224504 69 60 1.7 6.1 0.00 0.00 0.00 41 1011.8
20260503223613 71 38 1.7 4.3 0.00 0.00 0.00 35 1011.9
20260503222458 73 0 1.7 7.8 0.00 0.00 0.00 34 1011.6
20260503221456 74 222 2.6 6.1 0.00 0.00 0.00 28 1011.4